Location: Newark
(45.4422°N, 16.2769°E)
Time: 16:38:40
(UTC+00:00)

Vanguard 2 - Pass Details

Date: 10 December 2019
Orbit: 553 x 2938 km, 32.9° (Epoch: 21 January)

Event Time Altitude Azimuth Distance (km) Brightness Sun altitude
Rises 03:42:24 0° 263° (W) 6,603 - -27.3°
Reaches altitude 10° 03:46:50 10° 259° (W) 5,706 - -26.5°
Exits shadow 03:53:09 27° 249° (WSW) 4,513 10.9 -25.4°
Maximum altitude 04:03:35 50° 192° (SSW) 3,321 10.6 -23.6°
Drops below altitude 10° 04:17:30 10° 123° (ESE) 4,808 12.6 -21.2°
Sets 04:20:53 0° 118° (ESE) 5,537 13.3 -20.6°
